"Pseudo-MPEC" for 2016-038A = NORAD 41588

Created 2016 Sep 29 14:14:23 UT using Find_Orb

This object appears to still be maneuvering; orbital elements computed using the July or August nights don't line up with the September data, and the TLEs from JSpOC also show big changes in the orbit. It's supposed to be a geostationary satellite over 75 E. The orbital elements shown below look as if it's nudging its way toward that goal.

Astrometry:
2016-038A     C2016 07 17.18629 19 57 15.30 -00 53 21.3         x12.2 R D0550Y00
2016-038A     C2016 07 17.18812 19 57 39.55 -00 50 31.9         x12.0 R D0550Y00
2016-038A     C2016 07 17.18934 19 57 55.69 -00 48 39.8         x12.6 R D0550Y00
2016-038A    tC2016 07 17.24900 20 11 05.54 +00 41 28.8         x12.8 R D0550Y00
2016-038A    tC2016 07 17.25062 20 11 27.34 +00 43 55.0         x12.9 R D0550Y00
2016-038A    tC2016 07 17.25213 20 11 47.83 +00 46 11.9         x13.1 R D0550Y00
2016-038A    tC2016 08 13.96895 21 18 36.35 +03 32 39.4         x13.1 R D0550Y00
2016-038A    tC2016 08 13.96999 21 18 57.53 +03 33 57.2         x13.1 R D0550Y00
2016-038A    tC2016 08 13.97106 21 19 18.92 +03 35 15.4         x13.2 R D0550Y00
2016-038A    tC2016 08 14.13901 22 23 28.36 +07 53 02.3         x13.1 R D0550Y00
2016-038A    tC2016 08 14.13983 22 23 52.07 +07 54 39.9         x13.1 R D0550Y00
2016-038A    tC2016 08 14.14125 22 24 32.53 +07 57 28.5         x14.0 R D0550Y00
2016-038A    tC2016 09 17.02631 20 50 11.96 +03 13 24.7          13.0 R D0550Y00
2016-038A    tC2016 09 17.02724 20 50 34.97 +03 14 12.8          13.0 R D0550Y00
2016-038A    tC2016 09 17.02834 20 51 02.21 +03 15 09.5          13.2 R D0550Y00
2016-038A    tC2016 09 18.97630 21 16 57.54 +03 43 24.9          13.4 R D0550Y00
2016-038A    tC2016 09 18.97746 21 17 27.59 +03 44 28.3          13.4 R D0550Y00
2016-038A    tC2016 09 18.97857 21 17 56.45 +03 45 28.8          13.4 R D0550Y00

Station data:
(Y00) SONEAR Observatory, Oliveira (S20.71510 W44.78496)  Brazil.   Observers
    C. Jacques, E. Pimentel, J. Barros.  Measurer C. Jacques.  0.28-m f/2.2
    astrograph + CCD.

Orbital elements:  2016-038A = NORAD 41588
   Perigee 2016 Sep 18.369496 +/- 0.0331 TT =  8:52:04 (JD 2457649.869496)
Epoch 2016 Sep 18.0 TT = JDT 2457649.5                        Find_Orb
M 221.091452 +/- 12                 (J2000 equatorial)
n 375.941091456 +/- 0.106           Peri.  178.963722 +/- 3.1
a 41038.38935 +/- 7.71              Node   303.059214 +/- 0.57
e   0.59492830 +/- 0.0226           Incl.    5.076689 +/- 0.11
P1378.91m/0.958d           H 29.2   G  0.15   U 11.2
q 16623.48978 +/- 931    Q 65453.28892 +/- 921
6 of 18 observations 2016 Sept. 17-18 (46.9 hr); mean residual 5".024
Orbital elements (from July):  2016-038A 
   Perigee 2016 Jul 16.810118 +/- 0.0317 TT = 19:26:34 (JD 2457586.310118)
Epoch 2016 Jul 17.0 TT = JDT 2457586.5                        Find_Orb
M  74.978882 +/- 7                  (J2000 equatorial)
n 394.870328573 +/- 33.4            Peri.  177.273679 +/- 0.6
a 39716.15272 +/- 2236              Node   309.566317 +/- 0.8
e   0.77299086 +/- 0.0226           Incl.   17.215962 +/- 0.15
P1312.81m/0.912d           H 28.7   G  0.15   U 15.1
q 9015.929635 +/- 1366    Q 70416.37582 +/- 3009
5 of 6 observations 2016 July 17 (92.6 min); mean residual 0".283

Orbital elements (from August):  2016-038A = NORAD 41588
   Perigee 2016 Aug 14.370774 +/- 0.00593 TT =  8:53:54 (JD 2457614.870774)
Epoch 2016 Aug 14.0 TT = JDT 2457614.5                        Find_Orb
M 212.765170 +/- 3.4                (J2000 equatorial)
n 397.101285594 +/- 11.3            Peri.  182.869182 +/- 0.9
a 39567.26006 +/- 750               Node   307.627595 +/- 0.21
e   0.69880841 +/- 0.00738          Incl.   10.199654 +/- 0.026
P1305.44m/0.907d           H 29.8   G  0.15   U 14.4
q 11917.32565 +/- 489    Q 67217.19447 +/- 1062
6 of 18 observations 2016 Aug. 13-14 (4.1 hr); mean residual 3".375 
Residuals in arcseconds: 
160717 Y00(147d+ 249'-)   160813 Y00(162d+ 4169+)   160917 Y00 8.67- 3.03-
160717 Y00(145d+ 232'-)   160813 Y00(160d+ 4666+)   160917 Y00 .379- .032-
160717 Y00(143d+ 222'-)   160813 Y00(159d+ 5168+)   160917 Y00 9.18+ 3.23+
160717 Y00( 92d+ 5973+)   160814 Y00( 81d+ 535'+)   160918 Y00 7.92+ .434+
160717 Y00( 91d+ 6254+)   160814 Y00( 81d+ 536'+)   160918 Y00 .431- .043+
160717 Y00( 91d+ 6510+)   160814 Y00( 81d+ 538'+)   160918 Y00 7.75- .667-

Ephemerides (geocentric):
Date (UTC) HH   RA              Dec         delta   r     elong  mag " sig PA
---- -- -- --  ------------   ------------  ------ ------ -----  --- ---- ---
2016 09 19 00  21 24 13.797   +01 34 24.08   60562 1.0048 144.4 13.7 2062  81
2016 09 19 01  21 48 29.309   +02 04 30.91   57443 1.0048 150.3 13.4 1591  76
2016 09 19 02  22 15 58.158   +02 36 54.32   53480 1.0048 157.0 13.1  504  41
2016 09 19 03  22 48 27.709   +03 12 13.75   48605 1.0048 164.7 12.6 2205  98
2016 09 19 04  23 29 08.723   +03 50 54.00   42736 1.0047 173.1 Sha  7342  91
2016 09 19 05  00 24 25.197   +04 31 34.28   35802 1.0047 168.9 11.8 315'  90
2016 09 19 06  01 49 20.507   +05 02 54.94   27873 1.0046 148.8 11.9 824'  91
2016 09 19 07  04 24 05.344   +04 15 26.27   19917 1.0045 110.6 12.3  36d  93
2016 09 19 08  08 59 48.810   -01 03 20.37   16789 1.0043  42.0 16??  42d  95
2016 09 19 09  12 57 05.149   -04 48 36.04   22457 1.0043  18.4 21??  21d  91
2016 09 19 10  15 00 52.728   -04 57 45.82   30659 1.0043  48.6 16?? 710'  88
2016 09 19 11  16 13 01.550   -04 23 18.26   38283 1.0043  66.5 15.7 428'  86
2016 09 19 12  17 02 17.012   -03 44 36.60   44850 1.0043  78.7 15.3 275'  84
2016 09 19 13  17 39 41.702   -03 08 10.66   50371 1.0043  87.9 15.1 180'  83
2016 09 19 14  18 10 13.582   -02 34 39.83   54927 1.0044  95.5 15.0 6918  81
2016 09 19 15  18 36 27.615   -02 03 38.05   58596 1.0044 102.0 14.9 4103  79
2016 09 19 16  18 59 54.285   -01 34 30.41   61440 1.0044 107.8 14.8 1973  75
2016 09 19 17  19 21 31.866   -01 06 44.68   63505 1.0045 113.2 14.7  389  38
2016 09 19 18  19 42 01.502   -00 39 52.64   64822 1.0045 118.3 14.6 1095  96
2016 09 19 19  20 01 55.139   -00 13 29.20   65412 1.0045 123.2 14.5 2155  89
2016 09 19 20  20 21 40.297   +00 12 49.07   65283 1.0045 128.1 14.3 3005  86
2016 09 19 21  20 41 43.496   +00 39 25.28   64433 1.0046 133.0 14.2 3651  85
2016 09 19 22  21 02 33.405   +01 06 43.75   62849 1.0046 138.2 14.0 4081  84
2016 09 19 23  21 24 44.608   +01 35 11.49   60509 1.0046 143.7 13.7 4249  83
2016 09 20 00  21 49 03.225   +02 05 19.77   57374 1.0046 149.6 13.5 4058  82
2016 09 20 01  22 16 36.772   +02 37 45.07   53394 1.0045 156.4 13.1 3304  80
2016 09 20 02  22 49 13.703   +03 13 06.66   48501 1.0045 164.2 12.6 1575  69
2016 09 20 03  23 30 07.134   +03 51 48.35   42612 1.0045 173.0 Sha  2430 101
2016 09 20 04  00 25 46.852   +04 32 24.47   35657 1.0044 169.6 11.8 188'  92
2016 09 20 05  01 51 32.803   +05 03 09.23   27713 1.0043 149.2 11.9 587'  91
2016 09 20 06  04 28 19.708   +04 12 12.21   19785 1.0042 110.5 12.3  28d  93
2016 09 20 07  09 05 39.609   -01 11 04.68   16827 1.0041  41.4 16??  35d  95
2016 09 20 08  13 00 23.237   -04 49 58.39   22610 1.0040  18.3 21??  18d  91
2016 09 20 09  15 02 41.060   -04 57 09.98   30815 1.0040  48.2 16?? 600'  88
2016 09 20 10  16 14 12.482   -04 22 23.43   38419 1.0040  65.9 15.7 354'  85
2016 09 20 11  17 03 09.787   -03 43 40.70   44966 1.0040  78.0 15.3 218'  84
2016 09 20 12  17 40 24.390   -03 07 16.95   50468 1.0041  87.2 15.2 8047  82
2016 09 20 13  18 10 50.141   -02 33 48.60   55006 1.0041  94.8 15.0 4556  79
2016 09 20 14  18 37 00.244   -02 02 48.98   58659 1.0041 101.3 14.9 2009  73
2016 09 20 15  19 00 24.338   -01 33 43.08   61487 1.0042 107.1 14.8  361 173
2016 09 20 16  19 22 00.254   -01 05 58.70   63538 1.0042 112.5 14.7 1611  95
2016 09 20 17  19 42 28.895   -00 39 07.68   64841 1.0042 117.5 14.6 2877  89
2016 09 20 18  20 02 22.082   -00 12 44.94   65417 1.0043 122.5 14.5 3933  87
2016 09 20 19  20 22 07.280   +00 13 32.91   65275 1.0043 127.4 14.4 4810  86
2016 09 20 20  20 42 11.015   +00 40 08.98   64411 1.0043 132.3 14.2 5524  85
2016 09 20 21  21 03 02.026   +01 07 27.60   62814 1.0043 137.5 14.0 6071  84
2016 09 20 22  21 25 15.044   +01 35 55.82   60459 1.0043 143.0 13.8 6423  84
2016 09 20 23  21 49 36.475   +02 06 04.95   57309 1.0043 149.0 13.5 6512  83
2016 09 21 00  22 17 14.366   +02 38 31.47   53313 1.0043 155.7 13.1 6187  83
2016 09 21 01  22 49 58.228   +03 13 54.50   48401 1.0043 163.6 12.7 5122  81
2016 09 21 02  23 31 03.467   +03 52 36.91   42493 1.0042 172.7 Sha  2554  73
2016 09 21 03  00 27 05.560   +04 33 08.30   35518 1.0042 170.2 11.7 3979  98
2016 09 21 04  01 53 40.899   +05 03 17.28   27558 1.0041 149.6 11.9 362'  92
2016 09 21 05  04 32 28.140   +04 08 54.66   19657 1.0039 110.3 12.3  20d  93
2016 09 21 06  09 11 21.093   -01 18 31.96   16865 1.0038  40.8 16??  28d  95
2016 09 21 07  13 03 37.727   -04 51 11.47   22758 1.0037  18.1 21?? 930'  91
2016 09 21 08  15 04 29.446   -04 56 29.31   30967 1.0037  47.7 16?? 488'  87
2016 09 21 09  16 15 24.527   -04 21 24.49   38553 1.0037  65.3 15.7 278'  85
2016 09 21 10  17 04 03.967   -03 42 41.07   45080 1.0038  77.3 15.4 9703  83
2016 09 21 11  17 41 08.526   -03 06 19.91   50563 1.0038  86.6 15.2 5265  80
2016 09 21 12  18 11 28.100   -02 32 54.50   55085 1.0038  94.1 15.1 2196  72
2016 09 21 13  18 37 34.187   -02 01 57.50   58722 1.0039 100.6 15.0  470 154
2016 09 21 14  19 00 55.602   -01 32 53.83   61536 1.0039 106.4 14.9 2008  96
2016 09 21 15  19 22 29.743   -01 05 11.30   63572 1.0039 111.7 14.8 3453  90
2016 09 21 16  19 42 57.273   -00 38 21.79   64862 1.0040 116.8 14.7 4671  88
2016 09 21 17  20 02 49.887   -00 12 00.26   65425 1.0040 121.7 14.5 5712  87
2016 09 21 18  20 22 34.996   +00 14 16.63   65269 1.0040 126.6 14.4 6612  86
2016 09 21 19  20 42 39.128   +00 40 52.01   64392 1.0040 131.6 14.2 7390  85
2016 09 21 20  21 03 31.084   +01 08 10.20   62782 1.0040 136.7 14.0 8050  85
2016 09 21 21  21 25 45.737   +01 36 38.26   60413 1.0040 142.2 13.8 8581  84
2016 09 21 22  21 50 09.763   +02 06 47.53   57248 1.0040 148.3 13.5 8942  84
2016 09 21 23  22 17 51.720   +02 39 14.49   53236 1.0040 155.1 13.1 9036  84
2016 09 22 00  22 50 42.134   +03 14 38.07   48307 1.0040 163.0 12.7 8647  83
2016 09 22 01  23 31 58.630   +03 53 20.18   42380 1.0040 172.4 Sha  7234  82
2016 09 22 02  00 28 22.220   +04 33 45.79   35384 1.0039 170.9 11.7 3275  75
2016 09 22 03  01 55 45.410   +05 03 18.43   27409 1.0038 150.0 11.8 8939  95
2016 09 22 04  04 36 29.832   +04 05 33.70   19534 1.0037 110.2 12.3 795'  94
2016 09 22 05  09 16 49.830   -01 25 37.92   16903 1.0035  40.3 16??  21d  95
2016 09 22 06  13 06 45.647   -04 52 13.64   22901 1.0035  17.9 21?? 724'  90
2016 09 22 07  15 06 15.843   -04 55 43.43   31113 1.0035  47.3 16?? 372'  87